Regional Weather Roundup
Issued by NWS

Home | Current Version | Previous Version | Graphics & Text | Print | Product List | Glossary On
Versions: 1 2 3 4 5 6 7 8 9 10 11 12 13 14 15 16 17 18 19 20 21 22 23 24 25 26 27 28 29 30 31 32 33 34 35 36 37 38 39 40 41 42 43 44 45 46 47 48 49 50
000
ASUS45 KBOI 290010
RWRID
WEATHER ROUNDUP FOR IDAHO
NATIONAL WEATHER SERVICE BOISE ID
500 PM MST WED JAN 28 2015

NOTE: "FAIR" INDICATES FEW OR NO CLOUDS BELOW 12000 FEET
WITH NO SIGNIFICANT WEATHER AND/OR OBSTRUCTIONS TO VISIBILITY

IDZ012-014-290100-
SOUTHWEST IDAHO


CITY           SKY/WX    TMP DP  RH WIND       PRES   REMARKS
BOISE          CLEAR     46  37  71 NW3       30.33S
CALDWELL       CLEAR     48  36  61 NW3       30.35S
MOUNTAIN HOME  CLEAR     47  38  72 NW9       30.32S
$$

IDZ016-017-290100-
SOUTHCENTRAL IDAHO


CITY           SKY/WX    TMP DP  RH WIND       PRES   REMARKS
BURLEY         CLEAR     44  36  73 W10       30.31R
JEROME         CLOUDY    40  36  86 CALM      30.33R
TWIN FALLS     CLEAR     46  36  68 W10       30.32R
$$

IDZ019>023-290100-
SOUTHEAST IDAHO


CITY           SKY/WX    TMP DP  RH WIND       PRES   REMARKS
IDAHO FALLS    FOG       35  34  96 SW12      30.33R VSB 1/2 WCI  27
POCATELLO      CLOUDY    38  37  97 W9        30.35R WCI  31
REXBURG        CLOUDY    34  34 100 S5        30.32R FOG     WCI  30
$$

IDZ006-010-011-018-031-032-290100-
CENTRAL IDAHO MOUNTAINS


CITY           SKY/WX    TMP DP  RH WIND       PRES   REMARKS
MCCALL         CLEAR     42  25  50 CALM      30.28S
HAILEY         FOG       34  34 100 S6        30.30S VSB 1/4 WCI  29
STANLEY          N/A     37  29  72 CALM      30.30R
SALMON         CLEAR     37  28  70 CALM      30.32R
CHALLIS        CLEAR     36  33  89 W3        30.30R
$$

IDZ002-004-006-007-026-290100-
NORTHERN IDAHO


CITY           SKY/WX    TMP DP  RH WIND       PRES   REMARKS
LEWISTON       CLEAR     47  40  76 CALM      30.37S
LOWELL           N/A     41  37  86 CALM      30.38R
COEUR D`ALENE  CLOUDY    39  36  87 N7        30.38S WCI  34
MULLAN PASS    CLOUDY    30  28  92 CALM      30.31S
$$



USA.gov is the U.S. government's official web portal to all federal, state and local government web resources and services.